RH
7 7 6 6 6 6 7 7 8 8 8 8 8 8 8 8 7 7 7 7 8 8 9 8 8 7 7 6 5 5 4 4 4 4 5 4 4 4 5 8 10 14 18 22 26 27 31 35 37 41 44 47 52 57 63 70 71 70 71 67 63 61 58 55 52 51 48 47 46 45 44 43 41 40 41 42 45 47 49 49 50 53 54 55 54 53 53 53
10 8 7 7 6 6 6 6 6 7 7 8 8 8 8 8 8 8 7 7 7 8 8 9 8 8 7 7 6 6 5 4 4 4 5 5 5 5 4 5 8 12 16 21 26 28 30 35 37 40 45 47 51 59 63 66 67 67 66 64 61 59 56 53 52 51 48 50 51 47 46 44 41 41 41 41 41 42 43 45 48 51 52 53 53 51 51 54
12 11 9 8 7 7 6 6 6 6 6 7 7 8 8 8 8 8 8 7 7 7 8 8 9 8 8 7 7 6 6 5 4 4 5 6 6 5 4 4 6 10 15 19 25 28 28 32 36 40 45 46 48 56 59 62 65 64 63 62 60 56 54 53 51 50 48 50 53 51 49 46 45 43 42 41 40 41 39 39 44 49 50 49 51 50 49 53
15 14 12 11 9 8 7 7 6 6 6 6 6 6 7 7 8 8 8 8 7 7 7 8 8 9 8 8 7 6 6 5 5 6 7 6 4 4 4 4 4 8 12 17 22 26 26 29 36 40 43 43 44 50 53 57 60 60 61 62 59 55 54 52 51 52 51 50 51 51 51 50 48 46 45 42 41 43 39 35 37 43 45 45 47 49 50 52
17 16 15 14 12 10 9 8 7 7 7 6 6 6 6 7 7 7 8 7 7 7 7 8 8 8 9 8 8 6 6 6 7 9 9 7 5 4 4 4 5 6 9 15 20 23 24 28 35 39 40 41 43 47 50 53 56 57 57 59 58 56 54 52 51 53 52 52 52 51 52 52 49 47 47 43 42 43 39 36 35 38 42 42 43 47 50 50
18 18 17 15 14 13 12 10 9 8 7 7 7 7 6 6 6 7 7 7 7 7 7 7 7 8 8 8 8 7 7 7 8 10 10 9 6 4 4 4 5 6 7 12 18 21 25 29 34 38 40 40 42 46 49 51 55 56 55 55 55 55 53 52 53 53 53 54 54 53 52 52 48 46 47 44 39 37 36 39 39 39 40 41 44 47 49 49
20 19 18 17 16 15 14 13 12 10 9 8 8 7 7 7 6 6 6 7 7 7 7 7 7 7 7 8 8 8 7 7 7 7 8 9 8 4 4 5 6 7 8 11 15 19 24 30 34 38 39 40 41 44 48 50 52 56 56 53 52 52 50 51 52 51 52 53 53 53 53 51 48 45 46 44 39 35 35 39 40 40 42 42 45 49 48 48
21 20 20 19 18 17 16 15 14 13 11 10 9 8 7 7 7 7 6 6 6 6 7 7 7 7 7 7 7 7 7 7 7 6 7 7 8 7 5 6 7 8 9 10 13 16 22 28 33 35 37 40 41 43 48 49 50 54 55 53 52 50 49 48 49 50 51 51 51 53 54 52 48 44 44 42 40 38 37 39 41 42 44 44 45 49 49 48
22 21 21 20 19 18 17 16 15 14 14 12 11 10 8 8 7 7 7 6 6 6 6 6 7 7 7 7 7 7 7 7 7 6 7 6 8 8 6 7 7 8 9 10 11 13 19 25 30 33 35 38 40 42 46 48 50 53 53 54 52 49 47 45 45 48 49 49 50 51 54 53 49 44 42 39 39 40 39 38 41 43 46 46 45 47 47 47
23 22 22 21 20 20 18 18 17 15 15 14 13 12 10 9 8 7 7 7 7 6 6 6 6 7 7 7 7 7 7 7 7 8 8 8 8 9 8 8 7 8 8 10 11 12 14 19 26 31 34 35 36 40 44 46 50 52 51 52 51 48 46 43 42 44 46 46 48 50 52 51 47 44 41 39 39 41 42 40 40 43 47 48 46 45 46 46
24 23 22 21 20 20 19 18 17 16 16 15 14 13 12 10 9 8 8 7 7 7 6 6 6 6 6 7 7 7 7 8 9 10 10 9 9 10 10 9 8 7 7 8 10 10 12 14 20 26 30 33 35 36 39 45 50 50 48 47 45 44 43 41 39 39 42 43 46 50 51 48 45 42 40 41 42 43 45 42 39 41 46 48 45 43 44 45
25 24 23 22 21 20 20 19 18 17 16 16 15 14 13 11 10 10 8 8 8 7 7 6 6 6 6 6 6 7 8 7 9 12 11 10 10 10 10 10 9 8 7 7 8 9 10 11 15 21 27 32 35 36 36 42 46 43 43 42 41 39 37 36 35 35 37 40 45 49 49 47 44 41 40 42 44 45 48 45 39 40 45 48 46 43 42 43
26 25 24 23 22 21 20 19 19 18 17 17 16 14 13 12 11 11 9 9 8 8 7 6 6 6 6 6 5 7 8 8 8 10 10 9 10 10 10 10 9 9 8 7 8 8 9 10 13 17 24 31 34 36 36 39 40 37 38 38 37 35 31 31 32 33 34 37 42 45 47 46 44 43 42 44 45 48 50 48 41 38 42 46 45 43 41 40
26 26 25 24 23 22 21 20 19 18 18 17 16 15 13 12 12 11 11 10 8 8 7 7 7 6 7 6 6 7 7 7 7 7 8 8 9 11 10 10 9 9 8 7 7 8 8 9 11 15 22 28 32 35 36 37 37 36 35 32 32 32 29 28 31 34 35 35 38 42 44 43 44 45 46 47 47 48 51 52 46 39 39 44 45 42 39 37
26 25 25 24 23 22 22 21 21 20 19 18 16 15 14 14 14 13 13 12 10 9 8 7 7 8 10 8 5 7 7 7 6 6 7 7 8 10 10 9 9 8 8 7 8 8 8 8 11 16 20 25 30 34 35 35 35 34 32 31 31 30 28 29 31 33 34 34 36 40 42 42 45 47 48 50 49 48 49 52 51 45 40 43 46 44 40 36
25 25 24 24 23 23 22 21 21 22 21 19 17 16 16 17 16 16 16 15 14 12 10 9 8 9 12 10 7 8 8 7 6 7 7 6 7 8 9 9 9 8 8 8 8 9 8 9 11 14 18 24 29 32 34 34 33 32 30 30 31 29 28 29 30 32 31 32 34 37 39 42 46 48 49 50 49 48 47 49 52 51 44 41 45 45 41 37
26 25 24 24 23 22 22 21 21 22 22 20 18 18 20 20 18 18 19 18 18 17 14 13 14 13 12 10 8 9 9 8 8 8 8 7 6 7 9 9 9 9 9 9 9 10 10 10 11 12 17 25 28 31 34 33 31 30 28 28 30 28 27 28 30 31 29 30 33 36 38 41 45 47 47 49 50 49 48 48 49 50 46 41 44 46 42 38
26 25 25 24 24 23 22 22 21 22 22 21 19 21 23 21 21 22 21 19 19 21 19 19 20 16 12 11 10 9 9 9 9 9 9 8 7 7 8 9 10 11 11 12 11 12 12 11 10 11 16 24 28 30 31 28 28 29 27 28 30 29 28 28 30 30 30 31 33 36 37 40 44 46 46 48 49 49 49 49 49 49 48 43 42 46 44 38
26 26 26 25 24 24 23 22 22 22 22 21 20 22 22 21 22 24 23 20 20 21 21 22 20 14 11 12 11 10 10 10 10 10 9 9 8 8 8 9 11 12 12 14 13 11 12 12 11 12 15 22 26 27 27 24 25 26 26 28 29 29 27 28 30 30 32 33 34 35 35 39 44 46 45 46 47 47 49 50 49 49 49 46 43 45 45 40
25 25 26 26 25 24 23 22 22 22 23 22 22 22 22 23 23 23 23 21 20 20 19 19 19 16 14 12 11 11 11 10 11 11 10 10 9 8 8 9 11 12 12 13 12 10 12 14 12 11 14 20 24 25 24 22 23 24 24 26 28 28 26 27 30 31 32 32 33 34 35 38 42 44 44 44 45 47 48 48 49 49 49 48 45 44 46 42
23 24 24 25 25 25 24 23 22 22 23 22 23 24 25 25 25 24 23 21 19 18 18 17 17 17 16 13 11 12 13 12 11 11 11 11 10 9 9 10 12 13 12 11 12 11 12 13 11 10 12 17 22 23 22 20 20 22 23 24 27 26 25 27 30 32 31 30 32 35 37 40 41 43 43 44 45 45 46 46 47 49 49 49 47 44 46 45
18 20 21 22 23 23 23 23 22 23 23 22 23 25 26 25 26 25 24 23 21 19 18 17 17 16 16 15 12 12 14 15 12 11 12 12 12 10 9 10 12 12 12 12 14 13 13 12 10 9 10 14 19 21 20 19 18 19 21 23 25 24 25 28 29 30 30 29 31 35 38 41 43 44 44 43 43 43 45 45 45 48 48 47 47 44 44 46
14 15 16 17 19 20 20 21 22 23 22 21 24 26 26 25 25 25 24 24 21 18 17 16 16 16 16 16 14 13 14 15 14 12 12 13 12 11 10 10 11 12 12 12 14 14 14 12 10 9 10 11 14 16 17 18 17 17 18 20 22 22 25 30 29 30 30 28 31 34 36 39 43 48 47 44 43 44 45 46 45 47 47 45 46 44 42 44
13 12 13 14 14 15 16 18 20 22 20 21 24 25 25 25 25 24 24 24 20 18 18 17 16 15 15 16 15 14 13 13 13 13 13 13 12 11 11 10 11 13 13 12 12 13 12 11 9 9 10 10 10 12 14 17 17 16 16 17 18 20 25 30 31 30 30 28 29 32 34 36 40 46 47 45 45 45 45 46 45 46 47 46 47 47 45 42
12 12 12 12 13 13 13 14 17 19 19 21 24 24 25 25 24 24 26 25 21 19 19 18 16 16 15 15 15 14 14 13 12 12 13 14 13 12 11 11 11 12 12 12 13 12 11 10 10 10 10 11 11 11 12 14 16 16 15 14 16 20 26 30 31 30 30 30 29 31 35 38 37 39 44 45 45 45 44 44 44 45 46 46 47 49 48 44
11 12 12 12 12 12 12 12 14 16 18 21 23 23 25 24 24 25 26 25 22 19 19 18 17 16 15 15 15 14 14 13 11 12 13 14 14 13 13 12 12 12 12 12 13 12 10 10 11 11 11 11 11 11 10 12 15 15 13 12 15 21 26 30 31 30 31 31 30 31 35 40 38 36 40 44 44 43 43 42 43 44 44 44 45 47 48 45
10 11 11 11 11 12 12 12 12 14 16 19 20 22 24 24 24 24 24 27 25 18 17 18 17 16 15 15 15 14 14 12 11 11 12 14 15 14 15 14 13 13 12 13 14 12 10 10 11 11 12 12 11 11 9 11 14 13 9 10 13 19 24 27 30 30 30 31 30 30 33 36 38 37 36 40 43 43 41 39 41 42 42 43 43 44 46 44
8 9 9 10 10 12 13 12 10 11 14 16 18 22 24 24 25 23 25 29 26 18 16 17 17 16 15 15 15 15 13 12 11 11 11 13 15 15 15 15 14 14 13 13 14 12 10 11 11 11 12 13 12 10 9 9 11 10 8 9 10 16 22 24 28 29 29 31 30 29 32 33 35 37 35 36 41 42 39 38 39 40 40 41 41 42 45 44
6 7 8 8 8 10 11 10 10 10 12 13 15 20 22 24 24 24 28 29 22 18 17 16 16 16 15 15 15 14 14 13 12 11 11 13 15 15 15 15 15 15 13 13 12 12 11 11 11 11 12 12 11 11 10 9 9 8 8 9 8 14 21 24 27 27 28 32 30 27 30 31 30 32 33 35 38 37 36 36 36 37 37 38 40 41 42 44
6 6 8 7 7 9 8 9 11 11 9 10 13 17 21 25 24 24 30 29 20 18 18 16 17 16 16 16 15 15 15 14 12 12 12 13 15 15 15 15 16 16 15 13 12 12 12 12 12 12 12 11 10 10 11 10 9 8 8 8 7 11 18 24 26 27 29 29 24 23 27 29 26 24 27 31 33 34 34 35 35 36 36 37 38 39 40 41
8 7 7 8 8 9 8 10 14 13 9 9 11 15 20 25 25 26 29 24 19 20 18 17 18 18 17 17 16 15 15 15 13 12 13 14 15 17 17 16 16 16 16 15 13 13 12 13 13 13 12 11 11 10 10 10 10 10 9 9 10 10 15 21 24 28 27 21 17 19 25 28 24 20 22 25 27 30 31 32 33 35 35 35 37 39 39 39
11 9 8 9 8 9 12 14 16 14 11 10 10 15 20 21 23 25 23 19 20 21 19 19 20 19 19 18 17 16 15 15 14 13 14 15 16 17 17 17 17 16 17 15 14 14 14 12 12 12 12 12 13 12 11 10 10 11 11 12 13 12 13 17 21 23 19 15 16 19 23 27 22 17 20 23 23 25 27 28 30 32 32 32 35 37 37 38
13 11 11 10 9 12 14 15 16 14 12 11 12 17 22 23 23 22 19 20 21 20 19 20 20 20 20 19 19 18 16 16 15 14 14 14 17 17 16 17 17 16 17 17 15 15 15 13 12 12 12 12 13 13 12 11 10 11 11 12 14 14 14 17 17 16 13 12 14 17 22 26 21 16 17 20 21 21 23 24 27 30 30 30 32 35 35 36
14 12 12 11 11 16 17 15 17 17 15 15 15 19 23 25 25 22 18 20 20 20 21 22 21 21 21 21 20 18 17 17 16 15 16 17 18 19 18 18 18 17 18 18 16 16 15 15 13 11 11 11 12 12 12 11 11 10 10 12 13 14 16 16 14 12 12 12 13 16 22 23 18 17 17 17 20 20 19 20 22 26 27 26 29 33 34 35
15 12 12 11 13 19 19 16 18 20 21 19 18 23 25 23 22 21 20 21 21 22 24 24 23 22 22 22 22 20 18 18 17 16 17 18 19 20 19 18 18 18 18 18 17 16 16 16 13 11 11 11 11 12 11 12 13 11 11 12 12 12 13 13 13 12 12 12 13 15 19 20 18 17 17 17 20 20 18 18 18 21 24 24 28 31 32 32
15 11 10 11 15 20 20 18 20 24 26 23 22 25 23 20 20 21 22 22 22 23 24 26 27 25 25 25 23 22 20 19 19 17 16 17 18 19 19 19 19 18 18 19 18 17 16 15 13 12 12 11 11 12 11 12 14 13 12 12 11 10 11 12 13 12 11 12 13 13 15 17 16 16 16 17 19 20 19 18 17 19 22 23 25 27 28 29
17 13 11 14 19 20 18 19 23 29 30 27 26 25 21 19 21 23 23 23 23 23 25 28 30 28 28 27 25 24 23 21 20 19 18 17 17 17 18 19 19 18 18 19 19 18 17 16 14 14 13 11 10 11 12 12 13 13 12 11 10 10 12 13 13 11 11 12 12 12 12 12 15 17 16 16 18 20 20 19 17 19 22 22 22 24 26 28
20 15 13 18 21 19 18 21 27 33 35 34 32 29 25 23 22 21 22 24 24 25 25 28 30 29 30 30 27 26 25 24 23 22 21 19 18 18 18 18 18 18 18 18 19 19 17 17 15 14 13 12 11 12 14 13 12 13 12 11 12 13 12 13 14 13 12 12 11 11 12 11 13 16 16 14 17 20 20 20 18 19 22 20 19 22 25 27
23 17 14 18 21 20 21 25 31 37 41 42 39 33 28 25 21 20 21 24 26 26 27 28 28 30 32 33 30 29 28 28 27 26 24 22 21 23 23 21 19 19 19 18 19 19 18 17 16 15 14 13 13 14 14 13 13 13 13 13 13 13 12 12 14 12 13 15 14 11 11 10 10 13 13 13 16 17 19 20 19 19 22 20 19 21 22 24
26 24 20 18 20 20 20 25 37 45 46 45 40 32 28 26 24 21 21 24 26 27 29 30 31 32 33 33 32 31 30 29 29 29 27 24 23 25 26 25 23 22 20 18 18 19 19 18 17 16 16 15 15 15 13 12 12 13 14 14 13 13 12 12 12 12 13 19 20 15 10 9 10 12 10 11 14 15 16 18 19 19 21 20 19 19 20 23
29 30 26 22 22 20 18 24 39 47 47 45 41 35 31 29 29 27 25 27 28 28 29 31 33 33 33 34 34 33 33 33 31 31 30 28 27 28 27 26 26 25 22 20 20 19 20 20 18 17 16 16 16 15 13 12 12 13 13 13 12 13 13 12 13 13 11 15 19 16 10 8 9 11 9 9 12 13 14 16 16 18 20 20 20 19 20 23
33 32 28 26 26 22 21 27 37 43 47 49 47 43 39 37 38 37 33 31 31 30 30 30 31 32 33 35 35 36 38 37 34 33 32 31 32 32 29 28 29 28 26 26 25 23 21 20 19 18 17 17 17 16 14 13 12 13 14 13 12 13 14 13 13 14 12 12 15 15 12 9 9 11 10 8 9 11 12 14 15 16 17 20 22 23 24 25
36 33 28 30 32 28 27 33 39 44 51 55 53 50 49 47 47 44 40 37 34 32 32 30 30 32 35 37 38 38 40 39 37 36 35 35 35 34 31 31 31 30 30 32 32 29 25 21 19 18 18 18 18 18 17 16 15 14 15 15 14 14 13 12 14 15 13 12 13 14 13 11 10 12 11 9 10 10 11 12 14 16 17 18 21 25 27 28
37 34 32 36 39 35 34 39 44 49 56 60 60 60 59 58 56 53 49 44 38 35 34 32 32 34 35 38 39 40 41 43 43 41 39 39 38 35 34 34 33 32 33 36 36 33 30 26 23 21 20 20 21 21 19 18 17 16 16 15 15 14 13 13 15 16 14 13 13 13 13 12 14 15 12 10 11 11 10 11 12 16 19 19 21 25 28 29
39 37 36 40 45 43 43 48 51 53 58 61 63 64 63 62 61 59 56 50 41 38 37 36 35 36 38 40 41 41 42 44 46 44 42 41 40 38 37 37 36 35 35 37 36 34 33 32 27 24 23 22 22 23 22 21 18 16 16 15 15 15 14 14 14 15 16 17 14 12 14 15 15 14 9 8 10 10 10 11 12 14 17 20 23 26 28 29
45 43 40 44 50 51 52 55 54 54 57 58 58 60 61 63 62 60 59 55 48 42 39 37 38 41 44 44 43 42 43 44 46 46 46 44 43 41 39 39 38 38 39 38 35 34 34 33 30 27 27 25 24 24 24 24 20 16 16 16 15 15 14 15 15 14 17 18 14 14 17 15 12 12 11 9 9 7 7 9 11 14 16 20 24 25 26 27
50 50 49 52 58 62 61 59 58 59 59 57 56 55 56 58 59 58 59 58 55 49 44 41 41 44 48 48 47 45 44 46 47 47 48 48 46 44 42 41 40 40 40 39 36 35 37 36 32 30 30 28 28 27 25 24 21 18 16 16 16 16 15 16 15 15 18 17 14 17 19 14 11 13 12 10 10 8 7 8 10 13 16 20 23 24 24 24
54 53 55 61 68 74 75 69 66 66 64 62 61 58 56 55 55 56 57 57 57 55 52 49 45 44 47 50 52 51 48 47 47 48 49 49 49 48 45 43 43 42 41 40 38 37 39 39 35 33 31 28 27 27 26 25 22 19 19 17 16 16 16 16 16 16 17 16 14 17 19 15 13 13 10 9 10 9 8 8 9 12 16 20 22 23 23 23
59 59 62 67 73 81 85 83 80 76 71 69 66 63 63 61 57 56 54 54 56 56 56 56 50 46 47 50 53 55 52 49 47 48 49 49 51 52 50 48 46 43 43 43 41 38 41 44 41 37 33 29 27 28 26 25 23 21 20 19 17 17 15 15 16 16 17 16 14 17 19 17 15 13 11 10 9 9 9 9 10 11 14 18 21 22 23 23
65 66 69 74 79 84 88 89 87 83 80 77 71 68 71 71 67 63 56 55 55 54 58 60 53 48 49 52 54 53 52 51 50 47 46 49 54 56 56 54 50 47 46 47 45 42 43 47 43 39 38 33 29 29 27 26 25 23 22 20 17 17 16 15 15 16 17 17 15 17 19 19 17 16 14 12 10 9 10 10 11 11 13 17 18 19 21 22
69 70 74 79 83 85 89 90 88 88 87 84 78 76 77 78 79 76 67 61 58 57 61 63 56 49 48 51 53 50 50 51 48 43 42 46 51 56 60 56 52 52 51 50 50 47 47 49 44 42 46 40 32 32 32 29 27 25 23 21 18 16 15 14 15 16 16 16 16 16 17 17 17 17 16 15 13 11 11 11 11 11 12 15 16 18 21 23
73 75 79 83 84 84 87 88 87 88 89 86 82 79 77 75 79 81 77 70 65 65 67 63 58 55 51 49 49 49 48 47 44 41 41 41 43 50 58 57 53 54 53 52 54 51 51 53 48 48 52 45 36 36 36 33 32 28 21 19 18 17 16 15 15 15 15 15 16 15 15 15 15 16 16 16 14 12 11 10 10 10 11 12 16 19 21 23